Weather History for Aurora, NE

Change the Weather History Date:

Thursday, April 26, 2012

  Actual Average Record
Temperature  
Mean Temperature 18 °C -  
Max Temperature 25 °C 20 °C 31 °C (1981)
Min Temperature 11 °C 6 °C 0 °C (2006)
Degree Days  
Heating Degree Days 1    
Growing Degree Days 14 (Base 50)    
Moisture  
Dew Point 6 °C    
Average Humidity 45    
Maximum Humidity 69    
Minimum Humidity 30    
Precipitation  
Precipitation 0.00 mm - - ()
Sea Level Pressure  
Sea Level Pressure 1014 hPa    
Wind  
Wind Speed 13 km/h (ENE)    
Max Wind Speed 34 km/h    
Max Gust Speed 45 km/h    
Visibility 16 kilometers    
Events      
Averages and records for this station are not official NWS values.
T = Trace of Precipitation, MM = Missing Value Source: NWS Daily Summary

Daily Weather History Graph

Daily Weather History Graph

Search for Another Location

Airport:

Trip Planner

Search our weather history database for the weather conditions in past years. The results will help you decide how hot, cold, wet, or windy it might be!

Date:

Astronomy

Apr. 26, 2012 Rise Set
Actual Time 6:36 AM CDT 8:23 PM CDT
Civil Twilight 6:06 AM CDT 8:53 PM CDT
Nautical Twilight 5:31 AM CDT 9:29 PM CDT
Astronomical Twilight 4:52 AM CDT 10:07 PM CDT
Moon 10:16 AM CDT (4/26) 12:31 AM CDT (4/26)
Length of Visible Light 14h 46m
Length of Day
13h 47m
Waxing Crescent, 24% of the Moon is Illuminated
Apr 26
Waxing Crescent
Apr 29
First Quarter
May 5
Full
May 12
Last Quarter
May 20
New

Hourly Weather History & Observations

Time (CDT) Temp. Dew Point Humidity Pressure Visibility Wind Dir Wind Speed Gust Speed Precip Events Conditions
12:15 AM 15.0 °C 3.9 °C 48% 1011.1 hPa 16.1 km Calm Calm - N/A   Clear
12:35 AM 15.2 °C 4.4 °C 49% 1011.1 hPa 16.1 km Calm Calm - N/A   Clear
12:55 AM 14.2 °C 4.1 °C 51% 1011.4 hPa 16.1 km North 5.6 km/h / 1.5 m/s - N/A   Clear
1:15 AM 14.2 °C 4.1 °C 51% 1011.4 hPa 16.1 km Calm Calm - N/A   Clear
1:35 AM 13.9 °C 4.4 °C 53% 1011.4 hPa 16.1 km North 7.4 km/h / 2.1 m/s - N/A   Clear
1:55 AM 16.6 °C 4.6 °C 45% 1011.4 hPa 16.1 km NNE 7.4 km/h / 2.1 m/s - N/A   Clear
2:35 AM 13.7 °C 4.3 °C 53% 1011.4 hPa 16.1 km NNE 9.3 km/h / 2.6 m/s - N/A   Clear
2:55 AM 13.8 °C 4.8 °C 55% 1011.4 hPa 16.1 km NNE 9.3 km/h / 2.6 m/s - N/A   Clear
3:15 AM 12.6 °C 4.0 °C 56% 1011.4 hPa 16.1 km NNW 5.6 km/h / 1.5 m/s - N/A   Clear
3:35 AM 12.1 °C 4.0 °C 58% 1011.7 hPa 16.1 km NW 5.6 km/h / 1.5 m/s - N/A   Clear
3:55 AM 11.3 °C 4.2 °C 62% 1012.1 hPa 16.1 km NW 9.3 km/h / 2.6 m/s - N/A   Clear
4:15 AM 12.0 °C 4.7 °C 61% 1012.4 hPa 16.1 km NNW 14.8 km/h / 4.1 m/s - N/A   Clear
4:35 AM 12.8 °C 5.6 °C 62% 1012.8 hPa 16.1 km North 13.0 km/h / 3.6 m/s - N/A   Clear
4:55 AM 11.9 °C 5.1 °C 63% 1013.1 hPa 16.1 km WNW 7.4 km/h / 2.1 m/s - N/A   Clear
5:15 AM 11.5 °C 5.5 °C 67% 1013.4 hPa 16.1 km NW 7.4 km/h / 2.1 m/s - N/A   Clear
5:35 AM 11.4 °C 5.5 °C 67% 1013.4 hPa 16.1 km NW 5.6 km/h / 1.5 m/s - N/A   Clear
5:55 AM 10.9 °C 5.3 °C 68% 1013.8 hPa 16.1 km North 7.4 km/h / 2.1 m/s - N/A   Clear
6:15 AM 11.2 °C 5.6 °C 69% 1013.8 hPa 16.1 km North 14.8 km/h / 4.1 m/s - N/A   Clear
6:35 AM 12.7 °C 6.5 °C 66% 1014.1 hPa 16.1 km NE 16.7 km/h / 4.6 m/s - N/A   Clear
6:55 AM 12.0 °C 6.5 °C 69% 1014.8 hPa 16.1 km NE 13.0 km/h / 3.6 m/s - N/A   Clear
7:15 AM 13.0 °C 6.7 °C 66% 1015.1 hPa 16.1 km NE 18.5 km/h / 5.1 m/s 25.9 km/h / 7.2 m/s N/A   Clear
7:35 AM 14.0 °C 6.6 °C 61% 1015.5 hPa 16.1 km NE 14.8 km/h / 4.1 m/s - N/A   Clear
7:55 AM 14.5 °C 6.8 °C 60% 1015.5 hPa 16.1 km NE 18.5 km/h / 5.1 m/s - N/A   Clear
8:15 AM 15.7 °C 6.8 °C 55% 1016.1 hPa 16.1 km ENE 25.9 km/h / 7.2 m/s - N/A   Clear
8:35 AM 16.2 °C 6.9 °C 54% 1016.1 hPa 16.1 km ENE 25.9 km/h / 7.2 m/s 35.2 km/h / 9.8 m/s N/A   Clear
8:55 AM 17.2 °C 7.0 °C 51% 1016.5 hPa 16.1 km ENE 25.9 km/h / 7.2 m/s - N/A   Clear
9:15 AM 17.9 °C 6.7 °C 48% 1016.5 hPa 16.1 km ENE 25.9 km/h / 7.2 m/s - N/A   Clear
9:35 AM 18.7 °C 6.9 °C 46% 1016.5 hPa 16.1 km ENE 25.9 km/h / 7.2 m/s - N/A   Clear
9:55 AM 19.2 °C 6.7 °C 44% 1016.5 hPa 16.1 km ENE 33.3 km/h / 9.3 m/s 38.9 km/h / 10.8 m/s N/A   Clear
10:15 AM 20.1 °C 6.5 °C 41% 1016.5 hPa 16.1 km ENE 33.3 km/h / 9.3 m/s - N/A   Clear
10:35 AM 21.1 °C 6.8 °C 40% 1016.5 hPa 16.1 km East 27.8 km/h / 7.7 m/s 38.9 km/h / 10.8 m/s N/A   Clear
10:55 AM 20.9 °C 6.6 °C 39% 1016.5 hPa 16.1 km East 24.1 km/h / 6.7 m/s - N/A   Clear
11:15 AM 21.3 °C 6.8 °C 39% 1016.5 hPa 16.1 km ENE 25.9 km/h / 7.2 m/s - N/A   Clear
11:35 AM 22.0 °C 6.7 °C 37% 1016.8 hPa 16.1 km East 22.2 km/h / 6.2 m/s 35.2 km/h / 9.8 m/s N/A   Clear
11:55 AM 23.5 °C 6.5 °C 33% 1016.8 hPa 16.1 km East 22.2 km/h / 6.2 m/s - N/A   Clear
12:15 PM 23.3 °C 6.5 °C 34% 1016.5 hPa 16.1 km East 20.4 km/h / 5.7 m/s 31.5 km/h / 8.7 m/s N/A   Clear
12:35 PM 23.4 °C 6.2 °C 33% 1016.5 hPa 16.1 km East 24.1 km/h / 6.7 m/s 31.5 km/h / 8.7 m/s N/A   Clear
12:55 PM 23.8 °C 6.1 °C 32% 1016.1 hPa 16.1 km ENE 16.7 km/h / 4.6 m/s 31.5 km/h / 8.7 m/s N/A   Clear
1:15 PM 24.4 °C 6.3 °C 31% 1016.1 hPa 16.1 km East 18.5 km/h / 5.1 m/s 33.3 km/h / 9.3 m/s N/A   Clear
1:35 PM 25.0 °C 6.3 °C 30% 1016.1 hPa 16.1 km East 18.5 km/h / 5.1 m/s 31.5 km/h / 8.7 m/s N/A   Clear
1:55 PM 24.9 °C 6.2 °C 30% 1016.1 hPa 16.1 km ESE 14.8 km/h / 4.1 m/s 33.3 km/h / 9.3 m/s N/A   Scattered Clouds
2:15 PM 25.0 °C 6.2 °C 30% 1015.8 hPa 16.1 km East 9.3 km/h / 2.6 m/s 33.3 km/h / 9.3 m/s N/A   Mostly Cloudy
2:35 PM 23.9 °C 5.9 °C 31% 1016.1 hPa 16.1 km ESE 9.3 km/h / 2.6 m/s 25.9 km/h / 7.2 m/s N/A   Mostly Cloudy
2:55 PM 23.7 °C 6.0 °C 32% 1016.1 hPa 16.1 km ESE 14.8 km/h / 4.1 m/s - N/A   Scattered Clouds
3:15 PM 24.2 °C 6.1 °C 31% 1015.8 hPa 16.1 km ESE 16.7 km/h / 4.6 m/s - N/A   Scattered Clouds
3:35 PM 24.9 °C 6.2 °C 30% 1015.8 hPa 16.1 km East 16.7 km/h / 4.6 m/s 25.9 km/h / 7.2 m/s N/A   Mostly Cloudy
3:55 PM 24.6 °C 6.0 °C 30% 1015.5 hPa 16.1 km ESE 16.7 km/h / 4.6 m/s - N/A   Scattered Clouds
4:15 PM 24.8 °C 6.0 °C 30% 1015.5 hPa 16.1 km East 20.4 km/h / 5.7 m/s 29.6 km/h / 8.2 m/s N/A   Scattered Clouds
4:35 PM 24.4 °C 6.0 °C 31% 1015.1 hPa 16.1 km East 22.2 km/h / 6.2 m/s - N/A   Scattered Clouds
4:55 PM 24.8 °C 6.2 °C 30% 1014.4 hPa 16.1 km East 22.2 km/h / 6.2 m/s 29.6 km/h / 8.2 m/s N/A   Clear
5:15 PM 24.2 °C 6.3 °C 32% 1014.4 hPa 16.1 km ESE 24.1 km/h / 6.7 m/s - N/A   Clear
5:35 PM 24.0 °C 6.4 °C 32% 1014.1 hPa 16.1 km ESE 24.1 km/h / 6.7 m/s - N/A   Clear
5:55 PM 23.9 °C 6.0 °C 32% 1013.8 hPa 16.1 km ESE 29.6 km/h / 8.2 m/s 38.9 km/h / 10.8 m/s N/A   Clear
6:15 PM 23.6 °C 5.9 °C 32% 1013.4 hPa 16.1 km ESE 29.6 km/h / 8.2 m/s - N/A   Clear
6:35 PM 23.1 °C 5.5 °C 32% 1013.1 hPa 16.1 km ESE 31.5 km/h / 8.7 m/s 42.6 km/h / 11.8 m/s N/A   Clear
6:55 PM 22.5 °C 5.0 °C 32% 1013.1 hPa 16.1 km ESE 29.6 km/h / 8.2 m/s 42.6 km/h / 11.8 m/s N/A   Mostly Cloudy
7:15 PM 20.4 °C 7.8 °C 44% 1012.4 hPa 16.1 km ESE 31.5 km/h / 8.7 m/s 44.4 km/h / 12.3 m/s N/A   Drizzle
7:35 PM 19.2 °C 8.9 °C 51% 1012.4 hPa 16.1 km ESE 24.1 km/h / 6.7 m/s - N/A   Light Drizzle
7:55 PM 19.3 °C 7.6 °C 47% 1012.4 hPa 16.1 km ESE 24.1 km/h / 6.7 m/s - N/A   Overcast
8:15 PM 19.1 °C 7.7 °C 48% 1012.4 hPa 16.1 km East 24.1 km/h / 6.7 m/s - N/A   Overcast
8:35 PM 18.6 °C 7.3 °C 48% 1012.8 hPa 16.1 km East 18.5 km/h / 5.1 m/s - N/A   Overcast
8:55 PM 18.6 °C 6.7 °C 46% 1013.1 hPa 16.1 km East 18.5 km/h / 5.1 m/s - N/A   Overcast
9:15 PM 18.6 °C 6.2 °C 44% 1013.1 hPa 16.1 km East 18.5 km/h / 5.1 m/s - N/A   Mostly Cloudy
9:35 PM 18.6 °C 5.7 °C 43% 1013.4 hPa 16.1 km ESE 20.4 km/h / 5.7 m/s - N/A   Scattered Clouds
9:55 PM 18.7 °C 5.2 °C 41% 1013.4 hPa 16.1 km ESE 27.8 km/h / 7.7 m/s - N/A   Clear
10:15 PM 18.6 °C 5.2 °C 41% 1013.4 hPa 16.1 km ESE 27.8 km/h / 7.7 m/s - N/A   Clear
10:35 PM 18.5 °C 5.4 °C 42% 1013.8 hPa 16.1 km ESE 27.8 km/h / 7.7 m/s 38.9 km/h / 10.8 m/s N/A   Clear
10:55 PM 18.1 °C 5.7 °C 44% 1013.8 hPa 16.1 km ESE 27.8 km/h / 7.7 m/s - N/A   Clear
11:35 PM 17.5 °C 6.0 °C 47% 1013.4 hPa 16.1 km ESE 24.1 km/h / 6.7 m/s - N/A   Clear
11:55 PM 16.8 °C 6.0 °C 49% 1013.1 hPa 16.1 km ESE 25.9 km/h / 7.2 m/s 33.3 km/h / 9.3 m/s N/A   Clear